User: anonymous
Location: Unspecified
(0.0000°N, 0.0000°E)
Time: 19:32:07
(UTC+02:00)
Language:

ATLAS V CENTAUR R/B - Orbit

View from above orbital plane
View from above orbital plane
View from above satellite
View from above satellite

Ground track
Ground track

The orbit data is extracted from the following two-line orbital elements,

1 27500U 02038B   14243.43615627  .00018049  00000-0  22743-2 0  9649
2 27500 017.8567 233.1489 6960992 048.1280 058.9491 02.71027376 96842
Epoch (UTC): 31 August 2014 10:28:03
Eccentricity: 0.6960992
inclination: 17.8567°
perigee height: 225 km
apogee height: 30478 km
right ascension of ascending node: 233.1489°
argument of perigee: 48.1280°
revolutions per day: 2.71027376
mean anomaly at epoch: 58.9491°
orbit number at epoch: 9684

The dashed part of the orbit path shows where the satellite is in the earth's shadow,  

DLR